STARLINK-31766, 59723

Orbit data source: Space-Track

STARLINK-31766, 59723 is a payload satellite owned by SpaceX/Seattle (US) in LEO that was launched on Fri, 10 May 2024 UTC via an FALCON 9 launch vehicle from the Air Force Western Test Range (AFWTR). Payload-class satellites include a variety of spacecraft equipped with specific instruments for various scientific and technological missions. These include communications satellites like Starlink; space stations such as the ISS; scientific satellites like the Hubble; Earth observation satellites from companies like Planet Labs, Umbra, and HawkEye 360; GPS; miniature CubeSats for education and research; and military/defense satellites.

Loading next visibility...
Identifier
59723, 2024-088R
Orbit
LEO
Country
Flag of USUS
Related business
Manufacturer
SpaceX/Seattle
Mission
Operational Commercial Communications
Bus & Motor
STARLINK V2M, Unknown motor
Mass
730 kg wet, ~700 kg dry
Launch date (UTC)
2024-05-10 (2 years ago)
Launch vehicle
FALCON 9
Launch site
Air Force Western Test Range (AFWTR)
Object type
Payload
Rocket body
Debris
Shape & HBR
Box + 2 Pan, 17.7 m
Radar Cross Section
33.884 m², Large (>1 m²)

Expand to show TLE details & history
Last TLE update: 13 hours ago

TLE from 13 hours ago
0 STARLINK-31766
1 59723U 24088R   25346.83754545  .00003719  00000-0  13767-3 0  9996
2 59723  53.1576 183.4025 0001205  79.9404 280.1732 15.30188101 90380
Epoch: 2025-12-12T20:06Z
TLE epoch observation values (Epoch: 2025-12-12T20:06:03.926Z)
Latitude
-0.00009°
Longitude
160.11264°
Altitude
476.004 km
Speed
7.629 km/s
True Right ascension
12h 13m 36s
True Declination
0° 00' 00"
Sunlit
Object was in daylight at epoch
Visualization orbit readout
Latitude
Unknown
Longitude
Unknown
Altitude
Unknown
Speed
Unknown
Apparent Right ascension
Unknown
Apparent Declination
Unknown
Sunlit
N/A
Visualization observer readout
Local Sidereal Time
07:31:25
Azimuth
Unknown
Elevation
Unknown
Doppler factor
Unknown
Orbital elements
Apogee altitude
476.333 km
Perigee altitude
474.682 km
Semi-major axis
6,853.644 km
Eccentricity
0.00012
Inclination
53.1576°
RAAN
183.4025°
Arg. of periapsis
79.9404°
True anomaly
280.15961°
Mean anomaly
280.1732°
Eccentric anomaly
280.1664°
Mean motion
3.82526 °/min
Orbital period
94.11 mins
BSTAR
0.00013767
Loading maneuver chart data...
Computing Atmospheric mass density...
Loading historical data...
Loading historical data...
Loading historical data...
Loading historical data...
Loading historical data...
Loading historical data...
Loading historical data...

Documentation

Showing up to 5 results
|